N0QV Weather Reports


Display with metric or nautical units.
time (UTC)temp
F
wind
direction
speed
MPH
gust
MPH
rain 1hr
in
rain 24hr
in
rain mn
in
humidity
%
barometer
mb
20260906182343 72 171 0.0 1.0 0.00 0.00 0.00 88 1019.2
20260906181843 72 127 0.0 1.0 0.00 0.00 0.00 88 1019.2
20260906181340 72 167 0.0 1.0 0.00 0.00 0.00 87 1019.2
20260906180835 73 88 2.0 3.0 0.00 0.00 0.00 87 1018.9
20260906180330 73 142 0.0 2.0 0.00 0.00 0.00 87 1018.9
20260906175827 73 106 1.0 3.0 0.00 0.00 0.00 87 1018.9
20260906175323 73 140 3.0 7.0 0.00 0.00 0.00 87 1018.9
20260906174822 73 102 1.0 3.0 0.00 0.00 0.00 87 1018.9
20260906174321 73 85 1.0 5.0 0.00 0.00 0.00 86 1018.8
20260906173816 73 143 2.0 3.0 0.00 0.00 0.00 86 1019.1
20260906173312 73 129 2.0 7.0 0.00 0.00 0.00 86 1019.3
20260906172811 73 148 2.0 3.0 0.00 0.00 0.00 86 1018.9
20260906172308 73 80 2.0 5.0 0.00 0.00 0.00 86 1019.3
20260906171808 73 106 1.0 6.0 0.00 0.00 0.00 86 1019.4
20260906171303 73 134 1.0 2.0 0.00 0.00 0.00 86 1019.1
20260906170758 73 79 3.0 5.0 0.00 0.00 0.00 86 1018.9
20260906170254 73 106 3.0 7.0 0.00 0.00 0.00 85 1018.8
20260906165750 73 130 3.0 7.0 0.00 0.00 0.00 86 1019.1
20260906165250 74 138 3.0 6.0 0.00 0.00 0.00 85 1019.2
20260906164749 74 121 3.0 6.0 0.00 0.00 0.00 85 1019.2
20260906164244 75 122 3.0 7.0 0.00 0.00 0.00 84 1019.2
20260906163740 75 76 3.0 5.0 0.00 0.00 0.00 84 1018.8
20260906163236 75 97 1.0 5.0 0.00 0.00 0.00 85 1018.9
20260906162733 74 104 3.0 8.0 0.00 0.00 0.00 85 1018.8
20260906162227 74 114 3.0 8.0 0.00 0.00 0.00 86 1018.7
20260906161722 73 138 4.0 6.0 0.00 0.00 0.00 87 1018.8
20260906161221 73 92 3.0 8.0 0.00 0.00 0.00 87 1019.2
20260906160720 73 87 3.0 5.0 0.00 0.00 0.00 87 1018.9
20260906160220 73 102 3.0 6.0 0.00 0.00 0.00 87 1018.7
20260906155717 73 126 2.0 6.0 0.00 0.00 0.00 87 1018.6
20260906155213 73 93 3.0 5.0 0.00 0.00 0.00 87 1019.0
20260906154708 73 123 3.0 5.0 0.00 0.00 0.00 88 1018.7
20260906154209 73 122 3.0 5.0 0.00 0.00 0.00 88 1018.9
20260906153706 73 110 1.0 6.0 0.00 0.00 0.00 88 1019.0
20260906153202 73 100 2.0 6.0 0.00 0.00 0.00 88 1018.8
20260906152657 73 108 2.0 3.0 0.00 0.00 0.00 88 1018.8
20260906152157 73 183 1.0 3.0 0.00 0.00 0.00 88 1019.0
20260906151651 73 183 1.0 2.0 0.00 0.00 0.00 88 1019.2
20260906151147 73 115 1.0 3.0 0.00 0.00 0.00 89 1019.0
20260906150643 73 112 2.0 3.0 0.00 0.00 0.00 89 1019.0
20260906150138 73 147 1.0 3.0 0.00 0.00 0.00 90 1019.1
20260906145637 73 155 0.0 2.0 0.00 0.00 0.00 90 1018.9
20260906145131 73 143 0.0 2.0 0.00 0.00 0.00 90 1018.8
20260906144625 73 130 3.0 5.0 0.00 0.00 0.00 90 1018.7
20260906144121 73 109 2.0 5.0 0.00 0.00 0.00 90 1018.5
20260906143620 73 103 3.0 5.0 0.00 0.00 0.00 90 1018.6
20260906143117 73 155 0.0 2.0 0.00 0.00 0.00 90 1018.6
20260906142616 73 152 2.0 3.0 0.00 0.00 0.00 90 1018.7
20260906142112 73 0 2.0 6.0 0.00 0.00 0.00 90 1018.6
20260906141611 73 140 3.0 6.0 0.00 0.00 0.00 90 1018.6
20260906141106 73 127 3.0 6.0 0.00 0.00 0.00 90 1018.3
20260906140605 72 90 2.0 6.0 0.00 0.00 0.00 90 1018.6
20260906140100 72 158 3.0 7.0 0.00 0.00 0.00 90 1018.5
20260906135557 72 149 3.0 5.0 0.00 0.00 0.00 90 1018.4
20260906135053 72 138 2.0 5.0 0.00 0.00 0.00 90 1018.6
20260906134548 72 108 2.0 9.0 0.00 0.00 0.00 90 1018.4
20260906134043 72 155 2.0 5.0 0.00 0.00 0.00 90 1018.5
20260906133539 72 131 2.0 5.0 0.00 0.00 0.00 90 1018.3
20260906133034 71 67 2.0 3.0 0.00 0.00 0.00 90 1018.5
20260906132529 71 141 2.0 3.0 0.00 0.00 0.00 91 1018.6
20260906132025 71 83 3.0 5.0 0.00 0.00 0.00 91 1018.5
20260906131520 71 126 3.0 5.0 0.00 0.00 0.00 91 1018.3
20260906131016 71 101 2.0 3.0 0.00 0.00 0.00 91 1018.3
20260906130515 70 108 3.0 5.0 0.00 0.00 0.00 91 1018.1
20260906130010 70 121 3.0 3.0 0.00 0.00 0.00 91 1018.2
20260906125508 70 99 1.0 3.0 0.00 0.00 0.00 92 1018.2
20260906125007 70 105 2.0 3.0 0.00 0.00 0.00 91 1018.4
20260906124503 70 119 1.0 3.0 0.00 0.00 0.00 91 1018.4
20260906123957 70 121 2.0 5.0 0.00 0.00 0.00 92 1018.2
20260906123456 69 97 2.0 3.0 0.00 0.00 0.00 92 1018.1
20260906122956 69 136 2.0 5.0 0.00 0.00 0.00 92 1018.2
20260906122451 69 111 3.0 3.0 0.00 0.00 0.00 92 1017.9
20260906121948 69 126 2.0 3.0 0.00 0.00 0.00 92 1017.9
20260906121443 69 106 2.0 3.0 0.00 0.00 0.00 93 1018.0
20260906120940 69 137 2.0 3.0 0.00 0.00 0.00 93 1017.7
20260906120435 69 121 2.0 3.0 0.00 0.00 0.00 93 1018.0
20260906115931 69 136 2.0 2.0 0.00 0.00 0.00 93 1018.0
20260906115427 69 99 2.0 3.0 0.00 0.00 0.00 93 1018.0
20260906114927 69 139 0.0 3.0 0.00 0.00 0.00 93 1017.9
20260906114426 69 120 1.0 3.0 0.00 0.00 0.00 93 1017.9
20260906113922 69 118 1.0 3.0 0.00 0.00 0.00 93 1017.9
20260906113421 69 120 3.0 3.0 0.00 0.00 0.00 93 1018.0
20260906112917 69 125 1.0 2.0 0.00 0.00 0.00 93 1018.1
20260906112412 69 131 0.0 2.0 0.00 0.00 0.00 93 1018.2
20260906111907 68 124 1.0 3.0 0.00 0.00 0.00 93 1018.1
20260906111407 68 123 1.0 2.0 0.00 0.00 0.00 93 1018.2
20260906110902 68 135 1.0 2.0 0.00 0.00 0.00 93 1017.9
20260906110357 69 119 0.0 2.0 0.00 0.00 0.00 93 1017.9
20260906105856 69 127 1.0 2.0 0.00 0.00 0.00 93 1018.0
20260906105353 68 142 0.0 1.0 0.00 0.00 0.00 93 1017.8
20260906104848 68 110 1.0 2.0 0.00 0.00 0.00 93 1017.8
20260906104346 69 115 0.0 2.0 0.00 0.00 0.00 93 1017.9
20260906103845 69 94 1.0 2.0 0.00 0.00 0.00 93 1017.9
20260906103343 69 109 1.0 1.0 0.00 0.00 0.00 93 1017.9
20260906102840 69 108 1.0 2.0 0.00 0.00 0.00 93 1017.6
20260906102338 69 117 2.0 3.0 0.00 0.00 0.00 93 1017.8
20260906101834 69 106 3.0 3.0 0.00 0.00 0.00 93 1017.5
20260906101329 69 111 0.0 2.0 0.00 0.00 0.00 93 1017.5
20260906100825 69 91 1.0 3.0 0.00 0.00 0.00 93 1017.5
20260906100323 69 127 1.0 2.0 0.00 0.00 0.00 93 1017.5
20260906095819 69 135 1.0 2.0 0.00 0.00 0.00 93 1017.7
20260906095314 69 139 2.0 3.0 0.00 0.00 0.00 93 1017.4
20260906094813 69 127 1.0 1.0 0.00 0.00 0.00 93 1017.4
20260906094309 69 129 0.0 3.0 0.00 0.00 0.00 93 1017.1
20260906093805 69 106 1.0 2.0 0.00 0.00 0.00 94 1017.5
20260906093300 69 122 0.0 1.0 0.00 0.00 0.00 94 1017.4
20260906092755 69 134 1.0 2.0 0.00 0.00 0.00 94 1017.2
20260906092250 69 131 1.0 2.0 0.00 0.00 0.00 93 1017.0
20260906091745 69 130 1.0 2.0 0.00 0.00 0.00 93 1017.1
20260906091241 69 115 1.0 2.0 0.00 0.00 0.00 93 1017.0
20260906090738 69 133 1.0 2.0 0.00 0.00 0.00 93 1016.8
20260906090236 69 122 0.0 2.0 0.00 0.00 0.00 93 1016.9
20260906085736 69 121 1.0 2.0 0.00 0.00 0.00 93 1017.0
20260906085235 69 92 1.0 2.0 0.00 0.00 0.00 93 1016.9
20260906084730 70 94 1.0 2.0 0.00 0.00 0.00 93 1016.8
20260906084231 70 114 0.0 2.0 0.00 0.00 0.00 93 1017.0
20260906083725 70 148 0.0 1.0 0.00 0.00 0.00 93 1017.0
20260906083221 70 157 0.0 1.0 0.00 0.00 0.00 93 1017.4
20260906082716 70 155 0.0 1.0 0.00 0.00 0.00 92 1017.5
20260906082211 70 147 0.0 1.0 0.00 0.00 0.00 92 1016.9
20260906081707 70 134 1.0 2.0 0.00 0.00 0.00 92 1017.1
20260906081202 70 126 2.0 3.0 0.00 0.00 0.00 92 1016.9
20260906080658 70 68 1.0 2.0 0.00 0.00 0.00 92 1016.9
20260906080154 70 127 0.0 2.0 0.00 0.00 0.00 92 1016.9
20260906075654 70 109 1.0 2.0 0.00 0.00 0.00 92 1016.8
20260906075148 71 86 3.0 5.0 0.00 0.00 0.00 92 1016.5
20260906074644 71 123 1.0 3.0 0.00 0.00 0.00 92 1016.9
20260906074143 71 98 1.0 2.0 0.00 0.00 0.00 92 1017.1
20260906073637 71 125 1.0 2.0 0.00 0.00 0.00 92 1017.0
20260906073133 71 96 2.0 5.0 0.00 0.00 0.00 92 1017.1
20260906072628 71 98 2.0 3.0 0.00 0.00 0.00 92 1017.0
20260906072125 71 114 2.0 5.0 0.00 0.00 0.00 92 1017.0
20260906071621 71 108 1.0 3.0 0.00 0.00 0.00 92 1017.0
20260906071121 71 90 2.0 2.0 0.00 0.00 0.00 92 1016.8
20260906070617 71 140 3.0 3.0 0.00 0.00 0.00 92 1017.0
20260906070113 71 125 1.0 3.0 0.00 0.00 0.00 92 1017.0
20260906065612 71 139 0.0 2.0 0.00 0.00 0.00 92 1017.3
20260906065108 72 119 1.0 3.0 0.00 0.00 0.00 92 1017.2
20260906064603 72 123 0.0 2.0 0.00 0.00 0.00 92 1017.1
20260906064059 72 140 2.0 3.0 0.00 0.00 0.00 92 1017.0
20260906063554 72 130 2.0 5.0 0.00 0.00 0.00 91 1017.2
20260906063050 72 112 3.0 5.0 0.00 0.00 0.00 91 1017.5
20260906062545 72 155 2.0 2.0 0.00 0.00 0.00 91 1017.5
20260906062044 72 121 3.0 5.0 0.00 0.00 0.00 91 1017.3
20260906061541 72 80 2.0 6.0 0.00 0.00 0.00 91 1017.1
20260906061039 73 135 1.0 6.0 0.00 0.00 0.00 90 1017.2
20260906060536 73 86 2.0 7.0 0.00 0.00 0.00 90 1017.3
20260906060033 73 102 2.0 6.0 0.00 0.00 0.00 90 1017.4
20260906055529 73 96 2.0 3.0 0.00 0.00 0.00 90 1017.4
20260906055024 73 78 3.0 6.0 0.00 0.00 0.00 90 1017.3
20260906054524 73 109 3.0 5.0 0.00 0.00 0.00 90 1017.4
20260906054019 73 75 4.0 5.0 0.00 0.00 0.00 90 1017.5
20260906053515 73 89 3.0 3.0 0.00 0.00 0.00 90 1017.3
20260906053011 73 85 3.0 3.0 0.00 0.00 0.00 90 1017.2
20260906052507 73 97 2.0 3.0 0.00 0.00 0.00 90 1017.1
20260906052003 73 103 3.0 6.0 0.00 0.00 0.00 90 1017.3
20260906051459 73 90 2.0 5.0 0.00 0.00 0.00 91 1017.4
20260906050955 73 94 2.0 5.0 0.00 0.00 0.00 91 1017.4
20260906050454 73 114 2.0 5.0 0.00 0.00 0.00 91 1017.1
20260906045953 73 98 2.0 3.0 0.00 0.00 0.00 91 1017.2
20260906045452 73 75 1.0 3.0 0.00 0.00 0.00 91 1017.2
20260906044948 73 134 3.0 3.0 0.00 0.00 0.00 91 1017.1
20260906044443 73 91 3.0 5.0 0.00 0.00 0.00 91 1017.1
20260906043939 73 122 2.0 5.0 0.00 0.00 0.00 91 1017.2
20260906043435 73 71 3.0 5.0 0.00 0.00 0.00 90 1017.3
20260906042930 73 117 4.0 5.0 0.00 0.00 0.00 91 1017.4
20260906042429 73 119 1.0 3.0 0.00 0.00 0.00 91 1017.4
20260906041924 73 103 3.0 3.0 0.00 0.00 0.00 91 1017.0
20260906041420 73 107 3.0 3.0 0.00 0.00 0.00 91 1017.1
20260906040920 73 121 2.0 3.0 0.00 0.00 0.00 91 1017.4
20260906040415 73 69 2.0 3.0 0.00 0.00 0.00 91 1016.9
20260906035911 73 134 2.0 5.0 0.00 0.00 0.00 91 1016.9
20260906035406 74 159 2.0 5.0 0.00 0.00 0.00 90 1016.9
20260906034901 74 97 2.0 5.0 0.00 0.00 0.00 90 1017.2
20260906034355 74 104 1.0 3.0 0.00 0.00 0.00 90 1017.2
20260906033852 74 112 4.0 5.0 0.00 0.00 0.00 90 1017.3
20260906033351 74 106 2.0 3.0 0.00 0.00 0.00 90 1017.1
20260906032847 74 111 3.0 6.0 0.00 0.00 0.00 90 1017.1
20260906032343 74 105 1.0 2.0 0.00 0.00 0.00 90 1017.3
20260906031838 74 119 1.0 2.0 0.00 0.00 0.00 90 1017.3
20260906031333 74 98 3.0 5.0 0.00 0.00 0.00 90 1017.1
20260906030833 74 107 2.0 3.0 0.00 0.00 0.00 90 1017.1
20260906030329 74 119 2.0 3.0 0.00 0.00 0.00 90 1017.3
20260906025829 74 95 1.0 1.0 0.00 0.00 0.00 90 1017.3
20260906025323 74 117 1.0 2.0 0.00 0.00 0.00 90 1017.2
20260906024822 74 137 1.0 1.0 0.00 0.00 0.00 90 1017.4
20260906024321 74 100 1.0 1.0 0.00 0.00 0.00 89 1017.0
20260906023817 74 131 1.0 2.0 0.00 0.00 0.00 89 1017.2
20260906023312 74 115 0.0 1.0 0.00 0.00 0.00 90 1017.2
20260906022808 74 119 1.0 2.0 0.00 0.00 0.00 90 1017.4
20260906022306 74 120 1.0 2.0 0.00 0.00 0.00 90 1017.3
20260906021759 74 94 1.0 2.0 0.00 0.00 0.00 89 1017.2
20260906021258 74 111 1.0 2.0 0.00 0.00 0.00 89 1017.2
20260906020752 74 105 1.0 2.0 0.00 0.00 0.00 89 1017.1
20260906020252 74 115 1.0 2.0 0.00 0.00 0.00 89 1017.0
20260906015752 74 129 1.0 2.0 0.00 0.00 0.00 90 1016.9
20260906015251 74 121 1.0 2.0 0.00 0.00 0.00 89 1016.9
20260906014746 74 126 0.0 1.0 0.00 0.00 0.00 89 1016.8
20260906014241 74 144 1.0 1.0 0.00 0.00 0.00 89 1016.4
20260906013737 74 103 1.0 2.0 0.00 0.00 0.00 89 1016.3
20260906013237 75 86 1.0 2.0 0.00 0.00 0.00 89 1016.1
20260906012732 75 95 2.0 2.0 0.00 0.00 0.00 88 1016.0
20260906012227 75 115 1.0 5.0 0.00 0.00 0.00 88 1015.9
20260906011723 75 130 1.0 2.0 0.00 0.00 0.00 87 1016.1
20260906011223 76 146 1.0 1.0 0.00 0.00 0.00 87 1016.3
20260906010718 76 150 1.0 1.0 0.00 0.00 0.00 86 1016.1
20260906010214 76 86 1.0 3.0 0.00 0.00 0.00 86 1016.0
20260906005709 76 96 0.0 2.0 0.00 0.00 0.00 85 1016.2
20260906005208 77 122 1.0 3.0 0.00 0.00 0.00 84 1016.0
20260906004707 77 137 1.0 2.0 0.00 0.00 0.00 83 1016.0
20260906004202 77 107 1.0 3.0 0.00 0.00 0.00 83 1016.1
20260906003658 78 112 1.0 2.0 0.00 0.00 0.00 82 1016.0
20260906003154 78 116 2.0 2.0 0.00 0.00 0.00 82 1015.8
20260906002654 78 106 3.0 6.0 0.00 0.00 0.00 82 1015.9
20260906002148 78 144 3.0 5.0 0.00 0.00 0.00 81 1015.7
20260906001644 78 91 0.0 3.0 0.00 0.00 0.00 82 1015.9
20260906001143 78 122 1.0 5.0 0.00 0.00 0.00 82 1015.7
20260906000639 78 134 0.0 1.0 0.00 0.00 0.00 82 1015.7
20260906000134 78 115 2.0 5.0 0.00 0.00 0.00 82 1015.7
20260905235633 79 79 4.0 5.0 0.00 0.00 0.00 81 1015.7
20260905235128 79 101 2.0 5.0 0.00 0.00 0.00 81 1015.7
20260905234623 79 98 2.0 3.0 0.00 0.00 0.00 81 1015.7
20260905234120 79 144 0.0 3.0 0.00 0.00 0.00 81 1015.8
20260905233620 79 121 1.0 2.0 0.00 0.00 0.00 81 1015.7
20260905233114 79 108 1.0 3.0 0.00 0.00 0.00 81 1015.5
20260905232609 79 81 2.0 3.0 0.00 0.00 0.00 81 1015.5
20260905232105 79 136 2.0 2.0 0.00 0.00 0.00 80 1015.7
20260905231600 79 135 0.0 2.0 0.00 0.00 0.00 81 1015.7
20260905231057 79 122 2.0 3.0 0.00 0.00 0.00 80 1015.6
20260905230556 80 133 0.0 2.0 0.00 0.00 0.00 81 1015.6
20260905230055 80 156 0.0 2.0 0.00 0.00 0.00 81 1015.7
20260905225554 80 151 2.0 2.0 0.00 0.00 0.00 80 1015.4
20260905225049 80 151 1.0 2.0 0.00 0.00 0.00 79 1015.7
20260905224543 81 138 2.0 3.0 0.00 0.00 0.00 77 1015.4
20260905224043 81 133 4.0 7.0 0.00 0.00 0.00 76 1015.2
20260905223541 81 95 1.0 5.0 0.00 0.00 0.00 77 1015.2
20260905223037 81 120 3.0 6.0 0.00 0.00 0.00 77 1015.1
20260905222536 81 135 3.0 6.0 0.00 0.00 0.00 77 1015.3
20260905222032 82 117 5.0 7.0 0.00 0.00 0.00 76 1015.0
20260905221528 81 145 3.0 6.0 0.00 0.00 0.00 77 1015.2
20260905221024 82 97 2.0 6.0 0.00 0.00 0.00 78 1015.0
20260905220520 82 141 3.0 6.0 0.00 0.00 0.00 78 1015.0
20260905220015 82 87 3.0 7.0 0.00 0.00 0.00 78 1015.0
20260905215510 82 86 1.0 6.0 0.00 0.00 0.00 78 1015.0
20260905215006 82 113 5.0 6.0 0.00 0.00 0.00 78 1014.9
20260905214501 82 42 5.0 8.0 0.00 0.00 0.00 78 1014.9
20260905214001 82 90 4.0 7.0 0.00 0.00 0.00 78 1014.7
20260905213457 82 80 5.0 8.0 0.00 0.00 0.00 78 1015.2
20260905212953 82 43 3.0 8.0 0.00 0.00 0.00 78 1015.2
20260905212453 82 82 3.0 5.0 0.00 0.00 0.00 78 1015.2
20260905211952 82 97 6.0 8.0 0.00 0.00 0.00 78 1015.2
20260905211448 82 157 5.0 10.0 0.00 0.00 0.00 78 1015.2
20260905210943 82 112 5.0 6.0 0.00 0.00 0.00 79 1015.3
20260905210438 82 131 3.0 9.0 0.00 0.00 0.00 78 1015.3
20260905205938 82 111 2.0 5.0 0.00 0.00 0.00 78 1015.2
20260905205433 82 72 2.0 7.0 0.00 0.00 0.00 78 1015.1
20260905204931 82 78 4.0 7.0 0.00 0.00 0.00 78 1015.2
20260905204428 82 58 3.0 8.0 0.00 0.00 0.00 78 1015.0
20260905203926 83 70 3.0 5.0 0.00 0.00 0.00 76 1015.4
20260905203422 83 59 3.0 9.0 0.00 0.00 0.00 76 1015.4
20260905202917 82 94 4.0 8.0 0.00 0.00 0.00 77 1015.4
20260905202413 82 89 9.0 16.0 0.00 0.00 0.00 78 1015.7
20260905201908 82 102 6.0 13.0 0.00 0.00 0.00 78 1015.7
20260905201404 81 142 4.0 9.0 0.00 0.00 0.00 80 1015.4
20260905200903 81 139 7.0 10.0 0.00 0.00 0.00 79 1015.3
20260905200359 81 73 5.0 8.0 0.00 0.00 0.00 80 1015.4
20260905195857 81 46 3.0 7.0 0.00 0.00 0.00 80 1015.4
20260905195352 81 61 4.0 8.0 0.00 0.00 0.00 81 1015.4
20260905194849 80 131 5.0 7.0 0.00 0.00 0.00 81 1015.2
20260905194348 80 97 5.0 9.0 0.00 0.00 0.00 81 1015.4
20260905193847 80 95 1.0 7.0 0.00 0.00 0.00 81 1015.5
20260905193342 80 61 2.0 9.0 0.00 0.00 0.00 82 1015.5
20260905192838 80 96 2.0 6.0 0.00 0.00 0.00 82 1015.5
20260905192334 79 66 3.0 6.0 0.00 0.00 0.00 83 1015.3
20260905191833 78 73 2.0 7.0 0.00 0.00 0.00 83 1015.8
20260905191332 78 65 5.0 8.0 0.00 0.00 0.00 84 1015.5
20260905190831 78 99 3.0 8.0 0.00 0.00 0.00 83 1015.8
20260905190330 78 73 3.0 8.0 0.00 0.00 0.00 83 1015.6
20260905185830 78 59 5.0 8.0 0.00 0.00 0.00 83 1015.5
20260905185325 78 74 6.0 9.0 0.00 0.00 0.00 84 1015.4
20260905184824 78 91 3.0 7.0 0.00 0.00 0.00 84 1015.8
20260905184324 78 135 2.0 6.0 0.00 0.00 0.00 83 1015.7
20260905183822 78 103 2.0 6.0 0.00 0.00 0.00 83 1015.8
20260905183318 78 114 3.0 8.0 0.00 0.00 0.00 82 1015.6
20260905182818 78 85 4.0 6.0 0.00 0.00 0.00 81 1015.7